Tracking 19245 objects as of 19-Aug-2018
HD Live streaming from Space Station
objects crossing your sky now

FENGYUN 1C DEB

Track FENGYUN 1C DEB now!
10-day predictions


NORAD ID: 30230
Int'l Code: 1999-025WP
Perigee: 664.4 km
Apogee: 828.7 km
Inclination: 99.0 °
Period: 99.6 minutes
Semi major axis: 7117 km
RCS: 0.035 m2 (small)
Launch date: May 10, 1999
Source: People's Republic of China (PRC)
Launch site: Taiyaun Space Center, China (TSC)

Note: This is SATELLITE DEBRIS
aabbcc
Your satellite tracking list
Your tracking list is empty




NASA's NSSDC Master Catalog

Two Line Element Set (TLE):
1 30230U 99025WP  18230.48738356  .00001520  00000-0  40858-3 0  9997
2 30230  99.0131  46.7533 0115445  70.5572 346.6838 14.45802299603424
Source of the keplerian elements: AFSPC